This demonstration page uses our WeatherBlox Daily Observations layout. Learn more.

38.89511, -77.03637

Hourly Observations for November 7, 2017

Temp ( °F °C ) Dew Point ( °F °C ) Humidity (%) Winds ( mph kmh ) Pressure ( in mb ) Visibility ( mi km ) Precip ( " mm )
12:52 am 00:52 Mostly Clear 54 12.2 46 7.8 75 75 NNE 12 19 30.15 1021 10 16.09344 0 0
1:52 am 01:52 Mostly Clear 51 10.6 42 5.6 71 71 N 14 22 30.12 1020 10 16.09344 0 0
2:52 am 02:52 Partly Cloudy 50 10 41 5 71 71 NNW 13 20 30.15 1021 10 16.09344 0 0
3:52 am 03:52 Mostly Clear 48 8.9 38 3.3 68 68 NNE 15 24 30.15 1021 10 16.09344 0 0
4:52 am 04:52 Mostly Cloudy 48 8.9 38 3.3 68 68 NNE 10 17 30.15 1021 10 16.09344 0 0
5:52 am 05:52 Mostly Cloudy 48 8.9 37 2.8 66 66 N 9 15 30.18 1022 10 16.09344 0 0
6:52 am 06:52 Mostly Cloudy 47 8.3 36 2.2 66 66 NNE 9 15 30.18 1022 10 16.09344 0 0
7:52 am 07:52 Cloudy 48 8.9 37 2.8 66 66 NNE 12 19 30.21 1023 10 16.09344 0 0
8:52 am 08:52 Cloudy 47 8.3 36 2.2 66 66 NE 12 19 30.21 1023 10 16.09344 0 0
9:52 am 09:52 Cloudy 47 8.3 37 2.8 69 69 NE 9 15 30.18 1022 10 16.09344 0 0
10:52 am 10:52 Cloudy with Light Rain 46 7.8 38 3.3 73 73 N 10 17 30.18 1022 10 16.09344 0.001 0.001
11:34 am 11:34 Cloudy with Rain 45 7.2 40 4.4 83 83 NNE 14 22 30.18 1022 3 4.828032 0.03 0.762
11:52 am 11:52 Cloudy with Light Rain 45 7.2 41 5 86 86 NNE 8 13 30.15 1021 5 8.04672 0.04 1.016
12:52 pm 12:52 Cloudy with Rain 44 6.7 41 5 89 89 NNE 10 17 30.12 1020 2.5 4.02336 0.1 2.54
1:17 pm 13:17 Cloudy with Rain 44 6.7 41 5 89 89 NNE 10 17 30.15 1021 4 6.437376 0.07 1.778
1:43 pm 13:43 Cloudy with Heavy Rain 44 6.7 42 5.6 93 93 N 12 19 30.12 1020 2.5 4.02336 0.14 3.556
1:52 pm 13:52 Cloudy with Rain 43 6.1 42 5.6 97 97 N 12 19 30.12 1020 2.5 4.02336 0.17 4.318
2:31 pm 14:31 Cloudy with Rain 44 6.7 42 5.6 93 93 N 13 20 30.12 1020 3 4.828032 0.07 1.778
2:40 pm 14:40 Cloudy with Heavy Rain 44 6.7 42 5.6 93 93 N 13 20 30.09 1019 3 4.828032 0.09 2.286
2:49 pm 14:49 Cloudy with Rain 45 7 43 6 93 93 N 14 22 30.12 1020 3 4.828032 0.12 3.048
2:52 pm 14:52 Cloudy with Light Rain 44 6.7 42 5.6 93 93 N 14 22 30.09 1019 4 6.437376 0.12 3.048
3:04 pm 15:04 Cloudy with Rain 44 6.7 42 5.6 93 93 N 15 24 30.12 1020 2.5 4.02336 0.03 0.762
3:09 pm 15:09 Cloudy with Rain 43 6.1 41 5 93 93 N 14 22 30.12 1020 3 4.828032 0.05 1.27
3:21 pm 15:21 Cloudy with Rain 44 6.7 42 5.6 93 93 N 12 19 30.12 1020 3 4.828032 0.07 1.778
3:24 pm 15:24 Cloudy with Rain 44 6.7 42 5.6 93 93 N 14 22 30.12 1020 3 4.828032 0.07 1.778
3:26 pm 15:26 Cloudy with Rain 44 6.7 42 5.6 93 93 N 13 20 30.12 1020 4 6.437376 0.08 2.032
3:30 pm 15:30 Cloudy with Light Rain 44 6.7 42 5.6 93 93 N 16 26 30.12 1020 4 6.437376 0.08 2.032
3:37 pm 15:37 Cloudy with Rain 44 6.7 42 5.6 93 93 N 13 20 30.12 1020 3 4.828032 0.09 2.286
3:46 pm 15:46 Cloudy with Light Rain 45 7 43 6 93 93 N 15 24 30.12 1020 4 6.437376 0.1 2.54
3:52 pm 15:52 Cloudy with Rain 44 6.7 42 5.6 93 93 N 14 22 30.09 1019 3 4.828032 0.11 2.794
3:55 pm 15:55 Cloudy with Rain 44 6.7 42 5.6 93 93 N 12 19 30.12 1020 2.5 4.02336 0.01 0.254
4:00 pm 16:00 Cloudy with Rain 43 6.1 42 5.6 97 97 N 12 19 30.12 1020 3 4.828032 0.02 0.508
4:12 pm 16:12 Cloudy with Light Rain 43 6.1 42 5.6 97 97 N 16 26 30.12 1020 4 6.437376 0.03 0.762
4:20 pm 16:20 Cloudy with Light Rain 43 6.1 41 5 93 93 N 16 26 30.12 1020 3 4.828032 0.04 1.016
4:25 pm 16:25 Cloudy with Light Rain 43 6.1 41 5 93 93 N 15 24 30.12 1020 4 6.437376 0.04 1.016
4:41 pm 16:41 Cloudy with Light Rain 43 6.1 41 5 93 93 NNE 15 24 30.12 1020 2.5 4.02336 0.05 1.27
4:47 pm 16:47 Cloudy with Rain 45 7 43 6 93 93 N 12 19 30.12 1020 2 3.218688 0.07 1.778
4:52 pm 16:52 Cloudy with Rain 43 6.1 41 5 93 93 N 14 22 30.12 1020 2 3.218688 0.08 2.032
4:57 pm 16:57 Cloudy with Rain 43 6.1 41 5 93 93 NNE 16 26 30.12 1020 3 4.828032 0.001 0.001
5:00 pm 17:00 Cloudy with Rain 43 6.1 41 5 93 93 N 13 20 30.12 1020 3 4.828032 0.01 0.254
5:15 pm 17:15 Cloudy with Light Rain 43 6.1 41 5 93 93 NNE 15 24 30.12 1020 5 8.04672 0.05 1.27
5:28 pm 17:28 Cloudy with Heavy Rain 43 6.1 41 5 93 93 N 14 22 30.12 1020 4 6.437376 0.07 1.778
5:37 pm 17:37 Cloudy with Heavy Rain 43 6.1 42 5.6 97 97 NNE 10 17 30.12 1020 3 4.828032 0.11 2.794
5:52 pm 17:52 Cloudy with Heavy Rain 43 6.1 42 5.6 97 97 NNE 9 15 30.09 1019 4 6.437376 0.15 3.81
6:16 pm 18:16 Cloudy with Rain 44 6.7 42 5.6 93 93 N 9 15 30.15 1021 4 6.437376 0.07 1.778
6:31 pm 18:31 Cloudy with Heavy Rain 44 6.7 42 5.6 93 93 N 8 13 30.12 1020 3 4.828032 0.14 3.556
6:52 pm 18:52 Cloudy with Light Rain 44 6.7 42 5.6 93 93 N 8 13 30.12 1020 5 8.04672 0.19 4.826
7:01 pm 19:01 Cloudy with Heavy Rain 44 6.7 42 5.6 93 93 N 12 19 30.12 1020 5 8.04672 0.02 0.508
7:06 pm 19:06 Cloudy with Rain 44 6.7 42 5.6 93 93 N 10 17 30.15 1021 5 8.04672 0.03 0.762
7:08 pm 19:08 Cloudy with Rain 44 6.7 42 5.6 93 93 NNW 12 19 30.15 1021 5 8.04672 0.04 1.016
7:37 pm 19:37 Cloudy with Light Rain 44 6.7 42 5.6 93 93 N 13 20 30.12 1020 10 16.09344 0.08 2.032
7:52 pm 19:52 Cloudy with Light Rain 43 6.1 41 5 93 93 NNW 14 22 30.12 1020 10 16.09344 0.1 2.54
8:52 pm 20:52 Cloudy with Light Rain 43 6.1 41 5 93 93 N 15 24 30.15 1021 10 16.09344 0.01 0.254
9:52 pm 21:52 Cloudy 43 6.1 40 4.4 89 89 NNW 14 22 30.15 1021 10 16.09344 0.001 0.001
10:13 pm 22:13 Cloudy with Light Rain 42 5.6 41 5 96 96 N 16 26 30.18 1022 4 6.437376 0.001 0.001
10:35 pm 22:35 Cloudy with Light Drizzle 42 5.6 41 5 96 96 N 16 26 30.18 1022 4 6.437376 0.001 0.001
10:52 pm 22:52 Cloudy with Light Drizzle 42 5.6 41 5 96 96 N 14 22 30.15 1021 9 14.484096 0.001 0.001
11:13 pm 23:13 Cloudy with Light Drizzle 43 6.1 41 5 93 93 N 10 17 30.18 1022 10 16.09344 0.001 0.001
11:52 pm 23:52 Cloudy with Light Drizzle 42 5.6 41 5 96 96 N 14 22 30.15 1021 7 11.265408 0.001 0.001

Powered by AerisWeather